Location: Klein M�hlingen
(51.9472°N, 11.7453°E)
Time: 06:11:11
(UTC+00:00)

ISS - Pass Details

Date: 01 October 2021
Orbit: 417 x 423 km, 51.6° (Epoch: 27 October)

Event Time Altitude Azimuth Distance (km) Brightness Sun altitude
Rises 18:16:25 0° 283° (WNW) 2,367 2.1 -14.1°
Reaches altitude 10° 18:18:35 10° 275° (W) 1,502 0.4 -14.4°
Maximum altitude 18:21:45 38° 206° (SSW) 660 -2.7 -14.9°
Enters shadow 18:23:22 22° 152° (SSE) 959 -2.3 -15.1°
